Location: Little Baddow
(51.7333°N, 0.5667°E)
Time: 11:38:37
(UTC+00:00)

Cosmos 2292 Rocket - Pass Details

Date: 08 November 2025
Orbit: 369 x 1244 km, 83.0° (Epoch: 09 December)

Event Time Altitude Azimuth Distance (km) Brightness Sun altitude
Rises 05:17:16 0° 188° (S) 2,727 6.9 -16.7°
Reaches altitude 10° 05:19:11 10° 189° (S) 1,944 6.1 -16.4°
Maximum altitude 05:23:30 89° 269° (W) 724 3.8 -15.7°
Drops below altitude 10° 05:29:11 10° 10° (N) 2,531 6.7 -14.9°
Sets 05:31:58 0° 11° (N) 3,624 7.5 -14.5°
